Weather History for KY51 - October, 2013

Change the Weather History Date:

Friday, October 11, 2013

  Actual Average (KLSE) Record (KLSE)
Temperature  
Mean Temperature 62 °F 52 °F  
Max Temperature 74 °F 62 °F 86 °F (1928)
Min Temperature 50 °F 42 °F 22 °F (1987)
Degree Days  
Heating Degree Days 4 13  
Month to date heating degree days 127  
Since 1 July heating degree days 287  
Cooling Degree Days 0 0  
Month to date cooling degree days 7  
Year to date cooling degree days 781  
Growing Degree Days 12 (Base 50)    
Moisture  
Dew Point 52 °F    
Average Humidity 70    
Maximum Humidity 99    
Minimum Humidity 45    
Precipitation  
Precipitation 0.00 in 0.07 in 1.45 in (1983)
Month to date precipitation 0.88  
Year to date precipitation 28.40  
Snow  
Snow 0.00 in 0.00 in 0.50 in (1909)
Month to date snowfall 0.0  
Since 1 July snowfall 0.0  
Snow Depth -    
Sea Level Pressure  
Sea Level Pressure 29.93 in    
Wind  
Wind Speed 11 mph (SE)    
Max Wind Speed 22 mph    
Max Gust Speed 33 mph    
Visibility 10 miles    
Events      
T = Trace of Precipitation, MM = Missing Value Source: NWS Daily Summary

Daily Weather History Graph

Daily Weather History Graph

Search for Another Location

Airport or City:

Trip Planner

Search our weather history database for the weather conditions in past years. The results will help you decide how hot, cold, wet, or windy it might be!

Date:

Astronomy

Oct. 11, 2013 Rise Set
Actual Time 7:13 AM CDT 6:26 PM CDT
Civil Twilight 6:44 AM CDT 6:55 PM CDT
Nautical Twilight 6:11 AM CDT 7:28 PM CDT
Astronomical Twilight 5:37 AM CDT 8:01 PM CDT
Moon 2:01 PM CDT (10/11) No Moon Set
Length of Visible Light 12h 10m
Length of Day
11h 13m
Waxing Crescent, 47% of the Moon is Illuminated
Oct 11
Waxing Crescent
Oct 11
First Quarter
Oct 18
Full
Oct 26
Last Quarter
Nov 3
New

Hourly Weather History & Observations

Time (CDT) Temp. Dew Point Humidity Pressure Visibility Wind Dir Wind Speed Gust Speed Precip Events Conditions
12:15 AM 56.7 °F 48.6 °F 74% 30.00 in 10.0 mi SE 9.2 mph - N/A   Clear
12:35 AM 56.3 °F 48.7 °F 76% 30.00 in 10.0 mi SE 8.1 mph - N/A   Clear
12:55 AM 55.2 °F 49.1 °F 80% 30.00 in 10.0 mi SE 8.1 mph - N/A   Clear
1:15 AM 54.5 °F 49.1 °F 82% 30.00 in 10.0 mi SE 9.2 mph - N/A   Clear
1:55 AM 53.8 °F 49.1 °F 84% 30.00 in 10.0 mi SE 6.9 mph - N/A   Clear
2:15 AM 53.8 °F 49.5 °F 85% 30.00 in 10.0 mi SE 6.9 mph - N/A   Clear
2:35 AM 53.8 °F 49.5 °F 85% 30.00 in 10.0 mi SE 8.1 mph - N/A   Clear
2:55 AM 54.0 °F 49.8 °F 86% 30.01 in 10.0 mi SE 8.1 mph - N/A   Clear
3:15 AM 53.4 °F 49.6 °F 87% 30.00 in 10.0 mi SE 8.1 mph - N/A   Clear
3:35 AM 54.0 °F 50.0 °F 86% 30.00 in 10.0 mi SE 8.1 mph - N/A   Clear
3:55 AM 52.9 °F 49.5 °F 88% 30.00 in 10.0 mi ESE 6.9 mph - N/A   Clear
4:15 AM 52.7 °F 50.2 °F 91% 29.99 in 10.0 mi ESE 6.9 mph - N/A   Clear
4:35 AM 52.7 °F 51.1 °F 94% 29.99 in 10.0 mi ESE 6.9 mph - N/A   Clear
4:55 AM 52.0 °F 51.1 °F 97% 29.99 in 10.0 mi ESE 6.9 mph - N/A   Clear
5:15 AM 51.3 °F 50.9 °F 99% 29.98 in 10.0 mi ESE 8.1 mph - N/A   Clear
5:35 AM 51.1 °F 50.7 °F 99% 29.99 in 10.0 mi ESE 8.1 mph - N/A   Clear
5:55 AM 50.9 °F 50.7 °F 99% 29.99 in 7.0 mi ESE 6.9 mph - N/A   Clear
6:15 AM 51.4 °F 51.1 °F 99% 29.99 in 7.0 mi ESE 8.1 mph - N/A   Clear
6:35 AM 52.2 °F 51.8 °F 99% 29.99 in 7.0 mi ESE 8.1 mph - N/A   Clear
6:55 AM 53.1 °F 52.2 °F 97% 29.99 in 7.0 mi SE 9.2 mph - N/A   Mostly Cloudy
7:15 AM 53.6 °F 52.3 °F 95% 30.00 in 10.0 mi SE 8.1 mph - N/A   Overcast
7:35 AM 53.6 °F 52.3 °F 95% 30.00 in 7.0 mi ESE 6.9 mph - N/A   Overcast
7:55 AM 53.8 °F 52.7 °F 96% 30.00 in 7.0 mi SE 8.1 mph - N/A   Overcast
8:15 AM 54.7 °F 52.9 °F 94% 30.00 in 7.0 mi ESE 9.2 mph - N/A   Overcast
8:35 AM 55.6 °F 53.4 °F 92% 30.00 in 7.0 mi ESE 6.9 mph - N/A   Mostly Cloudy
8:55 AM 56.7 °F 53.8 °F 90% 30.00 in 7.0 mi SE 6.9 mph - N/A   Scattered Clouds
9:15 AM 57.4 °F 54.3 °F 90% 30.00 in 7.0 mi SE 10.4 mph - N/A   Scattered Clouds
9:35 AM 58.8 °F 54.7 °F 86% 30.00 in 10.0 mi SE 10.4 mph - N/A   Scattered Clouds
9:55 AM 60.8 °F 54.5 °F 80% 30.00 in 10.0 mi SE 10.4 mph 16.1 mph N/A   Scattered Clouds
10:15 AM 62.4 °F 54.1 °F 74% 29.98 in 10.0 mi SE 10.4 mph - N/A   Clear
10:35 AM 63.5 °F 54.5 °F 72% 29.97 in 10.0 mi ESE 11.5 mph - N/A   Clear
10:55 AM 65.5 °F 54.9 °F 68% 29.97 in 10.0 mi SE 10.4 mph - N/A   Clear
11:15 AM 66.7 °F 54.9 °F 66% 29.95 in 10.0 mi SE 13.8 mph 23.0 mph N/A   Clear
11:35 AM 68.0 °F 55.2 °F 64% 29.95 in 10.0 mi SE 16.1 mph 20.7 mph N/A   Clear
11:55 AM 69.1 °F 54.7 °F 60% 29.95 in 10.0 mi SSE 16.1 mph 24.2 mph N/A   Clear
12:15 PM 70.2 °F 55.4 °F 59% 29.94 in 10.0 mi SSE 16.1 mph 24.2 mph N/A   Scattered Clouds
12:35 PM 70.7 °F 55.4 °F 58% 29.92 in 10.0 mi SSE 17.3 mph 23.0 mph N/A   Scattered Clouds
12:55 PM 71.4 °F 54.0 °F 54% 29.91 in 10.0 mi SSE 21.9 mph 32.2 mph N/A   Scattered Clouds
1:15 PM 72.5 °F 54.7 °F 53% 29.90 in 10.0 mi SSE 12.7 mph 28.8 mph N/A   Clear
1:35 PM 72.3 °F 53.1 °F 51% 29.88 in 10.0 mi SSE 19.6 mph 33.4 mph N/A   Clear
1:55 PM 73.2 °F 53.6 °F 50% 29.88 in 10.0 mi SSE 17.3 mph 27.6 mph N/A   Scattered Clouds
2:15 PM 73.6 °F 52.3 °F 47% 29.88 in 10.0 mi SSE 21.9 mph 28.8 mph N/A   Clear
3:16 PM 73.4 °F 51.8 °F 47% 29.85 in 10.0 mi SSE 16.1 mph 26.5 mph N/A   Clear
3:35 PM 73.6 °F 50.7 °F 45% 29.85 in 10.0 mi SSE 19.6 mph 25.3 mph N/A   Clear
3:38 PM 73.4 °F 51.8 °F 47% 29.85 in 10.0 mi SSE 19.6 mph 29.9 mph N/A   Clear
3:55 PM 73.2 °F 51.3 °F 46% 29.85 in 10.0 mi SSE 19.6 mph 28.8 mph N/A   Clear
4:15 PM 73.4 °F 50.9 °F 45% 29.85 in 10.0 mi SSE 18.4 mph 27.6 mph N/A   Clear
4:35 PM 73.0 °F 50.7 °F 45% 29.84 in 10.0 mi SE 16.1 mph 26.5 mph N/A   Clear
4:55 PM 72.5 °F 50.7 °F 46% 29.85 in 10.0 mi SSE 17.3 mph 31.1 mph N/A   Clear
5:15 PM 72.0 °F 50.4 °F 46% 29.85 in 10.0 mi SSE 18.4 mph 26.5 mph N/A   Clear
5:35 PM 71.1 °F 49.8 °F 47% 29.85 in 10.0 mi SSE 20.7 mph 26.5 mph N/A   Clear
5:55 PM 69.8 °F 50.5 °F 50% 29.86 in 10.0 mi South 11.5 mph 18.4 mph N/A   Clear
6:15 PM 68.5 °F 50.9 °F 53% 29.87 in 10.0 mi SSE 10.4 mph 16.1 mph N/A   Clear
6:35 PM 68.4 °F 50.9 °F 54% 29.86 in 10.0 mi SSE 11.5 mph 17.3 mph N/A   Clear
6:55 PM 67.6 °F 51.1 °F 55% 29.85 in 10.0 mi SE 15.0 mph 18.4 mph N/A   Clear
7:15 PM 67.3 °F 51.4 °F 57% 29.86 in 10.0 mi SSE 11.5 mph 19.6 mph N/A   Scattered Clouds
7:35 PM 67.3 °F 51.8 °F 58% 29.87 in 10.0 mi SSE 10.4 mph - N/A   Clear
7:55 PM 67.1 °F 52.0 °F 58% 29.87 in 10.0 mi SSE 10.4 mph - N/A   Mostly Cloudy
8:15 PM 68.0 °F 52.2 °F 57% 29.85 in 10.0 mi SE 13.8 mph - N/A   Overcast
8:35 PM 67.6 °F 52.3 °F 58% 29.86 in 10.0 mi SE 13.8 mph 18.4 mph N/A   Overcast
8:55 PM 67.6 °F 52.7 °F 59% 29.86 in 10.0 mi SSE 12.7 mph 19.6 mph N/A   Overcast
9:15 PM 67.5 °F 52.7 °F 59% 29.86 in 10.0 mi SSE 12.7 mph 18.4 mph N/A   Overcast
9:35 PM 67.5 °F 52.7 °F 59% 29.85 in 10.0 mi SSE 15.0 mph 23.0 mph N/A   Overcast
9:55 PM 67.8 °F 52.7 °F 58% 29.85 in 10.0 mi SSE 13.8 mph 18.4 mph N/A   Overcast
10:15 PM 67.8 °F 52.7 °F 58% 29.85 in 10.0 mi SSE 15.0 mph 20.7 mph N/A   Overcast
10:35 PM 67.5 °F 52.9 °F 59% 29.85 in 10.0 mi SSE 12.7 mph 19.6 mph N/A   Overcast
10:55 PM 67.5 °F 52.9 °F 59% 29.85 in 10.0 mi SSE 10.4 mph 18.4 mph N/A   Overcast
11:15 PM 67.6 °F 52.7 °F 59% 29.85 in 10.0 mi SSE 11.5 mph 21.9 mph N/A   Overcast
11:35 PM 66.7 °F 53.8 °F 63% 29.84 in 10.0 mi South 12.7 mph 18.4 mph N/A   Overcast
11:55 PM 67.5 °F 53.1 °F 60% 29.84 in 10.0 mi South 12.7 mph 21.9 mph N/A   Overcast